User: anonymous   Login
Location: Unspecified
(0.0000°N, 0.0000°E)
Time: 00:37:16
(UTC+00:00)
Language:

DNEPR OBJECT AC - Orbit

View from above orbital plane
View from above orbital plane
View from above satellite
View from above satellite

Ground track
Ground track

The orbit data is extracted from the following two-line orbital elements,

1 39442U 13066AC  17206.35656628 +.00000259 +00000-0 +32018-4 0  9999
2 39442 097.6463 266.4594 0033670 095.9989 264.5068 14.90210425197751
Epoch (UTC): 25 July 2017 08:33:27
Eccentricity: 0.0033670
inclination: 97.6463°
perigee height: 574 km
apogee height: 621 km
right ascension of ascending node: 266.4594°
argument of perigee: 95.9989°
revolutions per day: 14.90210425
mean anomaly at epoch: 264.5068°
orbit number at epoch: 19775

The dashed part of the orbit path shows where the satellite is in the earth's shadow,  

DLR